This demonstration page uses our WeatherBlox Daily Observations layout. Learn more.

Hourly Observations for October 18, 2016

Temp ( °F °C ) Dew Point ( °F °C ) Humidity (%) Winds ( mph kmh ) Pressure ( in mb ) Visibility ( mi km ) Precip ( " mm )
12:15 am 00:15 Clear 55 12.5 31 -0.6 41 41 W 7 11 29.74 1007 10 16.09344 0 0
12:35 am 00:35 Clear 54 12 31 -0.4 43 43 WNW 6 9 29.77 1008 10 16.09344 0 0
12:55 am 00:55 Clear 54 12.1 31 -0.4 42 42 WNW 9 15 29.77 1008 10 16.09344 0 0
1:15 am 01:15 Clear 55 12.8 31 -0.5 40 40 WNW 9 15 29.77 1008 10 16.09344 0 0
1:35 am 01:35 Clear 54 12.4 32 -0.2 42 42 WNW 10 17 29.77 1008 10 16.09344 0 0
1:55 am 01:55 Clear 54 12 32 0.1 44 44 WNW 10 17 29.77 1008 10 16.09344 0 0
2:15 am 02:15 Clear 53 11.5 32 0.2 46 46 WNW 12 19 29.77 1008 10 16.09344 0 0
2:35 am 02:35 Clear 52 11 34 1.3 52 52 WNW 10 17 29.77 1008 10 16.09344 0 0
2:55 am 02:55 Clear 52 11 36 2.4 56 56 NW 10 17 29.8 1009 10 16.09344 0 0
3:15 am 03:15 Clear 51 10.3 37 3 61 61 NW 8 13 29.83 1010 10 16.09344 0 0
3:35 am 03:35 Clear 50 10.1 38 3.5 64 64 NW 7 11 29.83 1010 10 16.09344 0 0
3:55 am 03:55 Clear 48 9.1 38 3.5 68 68 NW 5 7 29.83 1010 10 16.09344 0 0
4:15 am 04:15 Clear 47 8.1 38 3.2 71 71 NW 5 7 29.85 1011 10 16.09344 0 0
4:35 am 04:35 Clear 46 7.7 38 3.3 74 74 NW 6 9 29.88 1012 10 16.09344 0 0
4:55 am 04:55 Clear 47 8.5 39 3.9 73 73 WNW 6 9 29.88 1012 10 16.09344 0 0
5:15 am 05:15 Clear 45 7.2 37 3 75 75 WNW 5 7 29.91 1013 10 16.09344 0 0
5:35 am 05:35 Clear 44 6.7 38 3.1 78 78 WNW 7 11 29.91 1013 10 16.09344 0 0
5:55 am 05:55 Clear 44 6.6 37 3 78 78 WNW 7 11 29.94 1014 10 16.09344 0 0
6:15 am 06:15 Clear 44 6.8 38 3.1 78 78 WNW 6 9 29.94 1014 10 16.09344 0 0
6:35 am 06:35 Clear 44 6.7 38 3.2 79 79 WNW 7 11 29.94 1014 10 16.09344 0 0
6:55 am 06:55 Clear 44 6.5 38 3.2 80 80 WNW 7 11 29.94 1014 10 16.09344 0 0
7:15 am 07:15 Clear 44 6.5 38 3.2 80 80 WNW 7 11 29.97 1015 10 16.09344 0 0
7:35 am 07:35 Clear 43 6 37 2.9 81 81 WNW 6 9 29.97 1015 10 16.09344 0 0
7:55 am 07:55 Sunny 42 5.6 37 2.6 81 81 WNW 7 11 29.97 1015 10 16.09344 0 0
8:15 am 08:15 Sunny 42 5.7 37 2.5 80 80 WNW 7 11 29.97 1015 10 16.09344 0 0
8:35 am 08:35 Sunny 43 6.2 37 2.5 77 77 WNW 7 11 30 1016 10 16.09344 0 0
8:55 am 08:55 Sunny 46 7.7 37 3 72 72 WNW 8 13 30 1016 10 16.09344 0 0
9:15 am 09:15 Sunny 49 9.2 38 3.4 67 67 WNW 7 11 29.97 1015 10 16.09344 0 0
9:35 am 09:35 Sunny 51 10.5 39 3.7 63 63 WNW 7 11 30 1016 10 16.09344 0 0
9:55 am 09:55 Sunny 53 11.9 38 3.5 57 57 WNW 8 13 30 1016 10 16.09344 0 0
10:15 am 10:15 Sunny 55 12.9 38 3.1 52 52 NW 9 15 29.97 1015 10 16.09344 0 0
10:35 am 10:35 Sunny 57 14 37 2.9 47 47 WNW 9 15 29.97 1015 10 16.09344 0 0
10:55 am 10:55 Sunny 58 14.4 38 3.2 47 47 NW 13 20 29.97 1015 10 16.09344 0 0
11:15 am 11:15 Sunny 59 15 38 3.3 46 46 NW 16 26 29.97 1015 10 16.09344 0 0
11:35 am 11:35 Sunny 59 15.2 37 3 44 44 NW 14 22 29.97 1015 10 16.09344 0 0
11:55 am 11:55 Sunny 61 15.9 37 2.6 41 41 NNW 17 28 29.97 1015 10 16.09344 0 0
12:15 pm 12:15 Sunny 62 16.7 37 2.6 39 39 NNW 10 17 29.94 1014 10 16.09344 0 0
12:35 pm 12:35 Sunny 62 16.9 36 2.4 38 38 N 9 15 29.94 1014 10 16.09344 0 0
12:55 pm 12:55 Sunny 63 17.3 35 1.9 36 36 NNW 7 11 29.94 1014 10 16.09344 0 0
1:15 pm 13:15 Sunny 64 17.5 35 1.5 34 34 NNW 8 13 29.94 1014 10 16.09344 0 0
1:35 pm 13:35 Sunny 65 18.2 33 0.8 31 31 N 9 15 29.94 1014 10 16.09344 0 0
1:55 pm 13:55 Sunny 65 18.5 33 0.7 30 30 NNW 7 11 29.94 1014 10 16.09344 0 0
2:15 pm 14:15 Sunny 66 18.7 33 0.6 30 30 N 8 13 29.94 1014 10 16.09344 0 0
2:35 pm 14:35 Sunny 66 18.8 32 0.1 29 29 NNW 6 9 29.91 1013 10 16.09344 0 0
2:55 pm 14:55 Sunny 67 19.4 32 -0.1 27 27 NNW 6 9 29.88 1012 10 16.09344 0 0
3:15 pm 15:15 Sunny 67 19.4 32 -0.2 27 27 WNW 5 7 29.88 1012 10 16.09344 0 0
3:35 pm 15:35 Sunny 67 19.7 31 -0.6 26 26 NW 3 6 29.88 1012 10 16.09344 0 0
3:55 pm 15:55 Sunny 67 19.5 29 -1.4 24 24 NW 3 6 29.88 1012 10 16.09344 0 0
4:15 pm 16:15 Sunny 68 20 30 -0.9 25 25 N 3 6 29.88 1012 10 16.09344 0 0
4:35 pm 16:35 Sunny 68 19.9 30 -1.3 24 24 NNW 5 7 29.88 1012 10 16.09344 0 0
4:55 pm 16:55 Sunny 68 19.9 29 -1.6 24 24 NW 3 6 29.88 1012 10 16.09344 0 0
5:15 pm 17:15 Sunny 67 19.7 29 -1.7 24 24 Calm 29.88 1012 10 16.09344 0 0
5:35 pm 17:35 Sunny 67 19.5 29 -1.6 24 24 N 5 7 29.88 1012 10 16.09344 0 0
5:55 pm 17:55 Sunny 67 19.2 29 -1.4 25 25 N 3 6 29.88 1012 10 16.09344 0 0
6:15 pm 18:15 Sunny 64 17.6 30 -0.9 29 29 ENE 3 6 29.91 1013 10 16.09344 0 0
6:35 pm 18:35 Sunny 62 16.5 30 -1.1 30 30 ENE 5 7 29.91 1013 10 16.09344 0 0
6:55 pm 18:55 Clear 58 14.6 29 -1.6 33 33 ENE 5 7 29.94 1014 10 16.09344 0 0
7:15 pm 19:15 Clear 55 12.6 29 -1.9 37 37 E 3 6 29.94 1014 7 11.265408 0 0
7:35 pm 19:35 Clear 53 11.9 30 -1.3 40 40 E 5 7 29.97 1015 10 16.09344 0 0
7:55 pm 19:55 Clear 52 11.3 30 -0.9 43 43 E 7 11 30 1016 10 16.09344 0 0
8:15 pm 20:15 Clear 52 11 30 -1 44 44 E 6 9 30 1016 10 16.09344 0 0
8:35 pm 20:35 Clear 49 9.4 31 -0.8 49 49 E 6 9 30 1016 7 11.265408 0 0
8:55 pm 20:55 Clear 50 10.2 31 -0.4 48 48 E 7 11 30 1016 7 11.265408 0 0
9:15 pm 21:15 Hazy 52 11 32 0 47 47 E 6 9 30 1016 4 6.437376 0 0
9:35 pm 21:35 Clear 52 11 33 0.3 48 48 E 8 13 30 1016 10 16.09344 0 0
9:55 pm 21:55 Clear 51 10.8 33 0.5 49 49 E 7 11 30 1016 10 16.09344 0 0
10:15 pm 22:15 Clear 51 10.8 33 0.5 49 49 ESE 6 9 30.03 1017 10 16.09344 0 0
10:35 pm 22:35 Clear 51 10.4 34 1.1 53 53 ESE 6 9 30.03 1017 10 16.09344 0 0
10:55 pm 22:55 Clear 51 10.6 34 1 52 52 E 7 11 30.03 1017 7 11.265408 0 0
11:15 pm 23:15 Hazy 52 11.1 34 1.2 51 51 E 6 9 30.03 1017 5 8.04672 0 0
11:35 pm 23:35 Hazy 52 11 35 1.5 52 52 E 6 9 30.03 1017 5 8.04672 0 0
11:55 pm 23:55 Mostly Cloudy with Haze 52 10.9 35 1.7 53 53 E 5 7 30.03 1017 5 8.04672 0 0

Powered by AerisWeather